Theta_e
292 292 291 290 290 290 289 289 289 288 287 287 286 286 286 287 287 287 287 287 287 286 287 286 286 286 287 286 287 286 285 285 284 285 285 285 285 285 285 284 285 284
291 291 290 290 289 289 289 289 288 288 287 287 287 286 286 286 287 287 286 286 286 286 286 285 285 285 285 285 285 285 284 284 284 285 284 284 284 285 284 284 284 283
290 289 289 288 288 288 288 288 288 288 287 287 287 286 286 286 286 286 286 285 285 284 285 285 284 284 284 284 285 285 284 284 283 284 284 284 284 283 283 284 283 284
289 289 289 288 288 288 288 288 287 287 286 286 286 286 286 286 285 284 284 284 284 284 284 284 284 284 284 284 285 284 284 284 283 283 283 284 284 283 283 283 283 283
289 288 288 288 288 288 288 287 286 287 286 285 285 285 284 285 284 284 283 283 284 283 283 283 283 283 283 283 284 283 283 283 283 282 282 282 283 282 282 282 281 281
288 288 288 288 287 287 287 287 286 286 285 285 285 285 285 285 284 283 283 283 283 283 283 283 283 282 283 282 283 282 282 281 281 281 280 280 281 282 282 282 281 280
287 287 287 287 287 287 286 286 286 286 285 285 285 284 284 284 283 283 283 283 283 283 283 282 282 282 282 282 282 281 281 281 280 280 279 280 280 280 281 281 280 280
286 286 286 286 286 286 285 285 285 285 285 284 283 284 284 284 283 284 283 283 282 282 282 282 281 281 281 280 280 280 280 282 281 279 279 279 279 279 280 281 280 279
285 285 285 285 284 284 284 284 284 284 284 284 283 283 283 283 283 282 282 282 281 281 281 281 281 280 280 280 279 279 279 279 280 278 278 278 278 278 279 279 279 279
284 284 284 283 283 283 282 283 283 283 284 284 283 283 282 282 282 281 281 281 280 280 280 280 280 280 279 279 279 278 278 278 278 278 278 278 278 278 278 278 278 278
283 283 283 283 283 283 283 283 283 283 283 282 282 282 281 281 281 280 280 280 280 279 279 279 279 279 278 278 278 278 277 277 277 277 277 278 278 278 278 278 278 277
282 282 282 282 283 283 283 283 283 282 282 282 282 281 280 280 280 280 279 279 279 278 278 278 278 278 277 277 277 277 277 277 277 277 277 278 278 278 278 278 277 277
282 282 282 283 284 284 283 283 282 282 281 280 280 280 279 279 279 278 279 278 278 278 277 277 277 277 277 277 277 277 276 276 277 277 278 278 278 278 278 278 278 277
283 283 283 284 284 284 283 283 282 281 280 280 279 279 278 278 278 278 278 278 277 277 277 277 276 276 277 277 276 276 276 276 277 277 278 278 278 278 278 278 277 277
284 284 284 284 283 283 283 282 281 280 279 279 279 279 279 278 278 277 277 277 277 276 276 276 275 275 276 276 275 276 277 277 277 277 277 277 277 277 277 277 277 277
284 284 284 283 283 282 282 281 280 279 279 278 278 278 277 277 277 276 276 276 276 276 275 275 275 276 275 275 275 275 276 277 277 277 277 276 276 276 276 277 277 277
284 283 283 283 283 282 282 280 279 279 278 278 277 277 276 276 276 275 275 275 275 275 275 275 275 275 275 276 276 277 277 276 276 276 276 276 275 275 275 276 276 276
284 284 283 283 282 282 281 280 279 278 278 277 276 276 275 275 275 275 275 275 275 274 274 274 274 275 276 276 276 277 277 276 276 276 275 275 275 275 275 275 275 275
284 284 283 283 282 282 280 279 278 277 276 276 275 276 275 274 274 274 274 274 274 273 273 274 273 275 275 276 276 277 277 277 276 276 275 275 275 275 275 275 275 275
284 283 283 283 282 281 280 278 277 276 276 276 275 275 274 274 274 273 274 273 273 273 272 273 273 274 275 275 276 276 277 277 276 275 275 275 275 275 275 274 274 273
284 284 283 283 282 280 279 277 277 276 276 275 274 274 273 273 273 272 272 272 272 271 271 271 272 274 274 275 276 276 277 277 275 275 275 274 274 274 274 274 273 273
284 283 283 282 281 279 278 277 276 276 275 275 274 274 274 274 273 273 271 271 270 270 269 269 270 273 274 275 275 276 276 275 274 274 273 273 273 273 273 273 273 273
284 283 283 282 281 279 277 277 276 275 275 274 272 273 273 272 271 271 271 270 269 268 268 268 269 271 273 274 274 275 275 273 273 272 271 271 271 272 272 272 272 272
284 283 282 281 280 278 277 277 276 275 274 273 272 272 272 271 271 270 269 269 268 267 268 267 268 270 272 273 274 274 274 272 271 271 271 271 271 272 272 272 273 274
284 283 282 281 279 279 277 276 275 274 273 272 272 272 271 271 270 269 268 268 267 267 268 267 266 268 271 272 273 274 273 272 271 270 270 270 270 271 272 272 272 273
283 282 281 280 279 278 277 276 275 273 271 271 270 271 270 270 268 268 267 267 267 265 264 266 266 266 267 271 272 273 273 272 271 270 269 270 270 270 270 271 272 272
Wind_Speed
7 7 7 7 6 6 6 7 6 7 6 5 5 5 5 4 4 5 5 5 5 4 4 5 5 5 4 5 4 4 4 4 4 4 3 3 2 2 2 3 3 3
7 7 7 7 7 6 6 6 6 6 6 6 5 5 5 4 4 4 4 4 4 5 4 5 5 5 4 3 3 2 2 2 1 1 1 2 2 1 1 2 1 3
7 7 8 8 7 8 7 6 6 6 6 6 6 5 4 4 4 4 3 3 4 4 4 3 2 2 2 2 1 1 2 2 3 2 2 1 2 2 3 2 2 2
7 7 7 8 8 8 7 7 6 6 6 5 5 4 4 3 4 4 3 3 3 3 3 2 2 2 1 1 1 2 2 2 3 3 3 2 2 2 3 3 3 3
7 7 7 7 7 7 6 7 7 6 6 6 5 5 4 4 4 4 4 3 3 3 3 2 3 3 3 3 2 3 3 2 3 4 4 4 2 2 3 3 4 4
6 7 7 7 7 7 7 7 7 7 7 7 6 5 5 5 4 4 4 4 3 3 3 3 3 3 3 3 3 3 3 3 4 4 4 4 3 3 2 3 4 4
8 7 7 6 7 7 7 7 7 7 6 6 6 5 5 5 5 4 4 4 4 4 4 4 4 4 3 3 2 3 3 3 3 3 4 4 4 4 3 3 4 4
7 6 6 6 6 7 6 6 6 6 7 7 6 6 5 5 5 4 4 4 4 4 4 4 3 3 2 2 2 2 3 1 2 4 4 4 4 5 4 3 4 5
7 7 6 6 6 5 5 5 5 6 6 7 6 6 5 5 5 5 4 4 4 4 3 2 2 1 1 1 1 2 2 3 3 4 4 5 5 5 5 5 5 5
7 6 6 6 5 4 6 6 6 6 5 5 6 5 5 5 5 5 4 4 3 2 2 1 1 1 1 1 1 2 2 3 4 4 4 5 5 6 6 5 6 6
7 7 7 6 5 5 7 6 6 5 5 5 5 6 5 5 5 4 3 3 2 1 1 1 1 1 2 2 1 1 2 3 4 4 5 5 6 6 6 6 6 6
7 7 7 7 7 7 7 7 6 5 5 5 5 6 5 5 4 3 3 2 1 0 1 2 2 2 2 2 2 2 2 3 4 4 5 5 6 6 6 6 6 6
8 8 8 9 8 8 7 6 5 5 5 5 5 5 5 4 4 3 2 2 1 1 2 2 2 2 2 2 2 2 3 3 4 5 5 5 5 6 6 6 7 7
10 9 9 9 8 7 7 6 6 5 5 5 5 5 5 4 4 3 2 2 2 2 2 2 2 3 2 2 2 3 3 4 4 5 5 6 6 6 6 7 7 7
9 9 8 7 7 7 7 6 6 6 6 5 5 5 4 4 4 4 3 3 3 3 2 2 2 2 1 1 2 3 3 4 5 5 6 6 6 7 7 7 7 7
9 8 8 7 7 7 7 6 6 6 6 6 5 5 4 4 4 4 4 4 3 3 3 3 2 2 1 2 4 3 4 4 5 5 5 6 6 7 7 7 7 7
9 9 8 8 7 7 5 5 7 5 4 4 4 5 5 4 4 5 4 4 4 4 4 3 3 3 3 4 6 7 6 5 5 5 6 7 7 7 7 7 7 7
9 9 9 8 7 7 6 5 4 5 5 5 4 4 4 4 5 5 5 5 4 4 4 4 4 4 5 6 7 8 8 6 5 6 6 6 7 8 7 7 7 7
10 10 8 8 7 6 5 5 4 5 5 5 5 4 4 4 6 5 5 5 5 5 5 4 4 5 6 7 8 9 9 8 6 7 7 7 8 8 8 8 7 7
11 9 9 8 8 7 5 5 5 6 5 4 4 4 4 4 4 4 4 5 5 5 5 5 5 5 7 8 9 10 10 9 7 7 8 8 9 9 8 8 7 7
11 10 10 8 8 8 7 7 6 5 6 5 5 5 5 5 5 5 4 4 4 3 4 4 4 7 8 9 10 10 10 9 7 7 7 8 8 8 9 8 8 7
11 11 11 9 9 9 10 9 7 8 7 5 5 4 4 4 3 4 4 5 4 4 3 5 5 8 9 10 10 10 10 6 6 7 7 7 8 8 8 8 8 8
12 12 12 11 11 11 11 11 9 8 6 4 4 4 5 5 4 4 4 4 5 5 5 5 4 6 8 9 9 10 7 5 5 6 7 7 8 8 8 9 9 9
12 12 12 11 11 12 13 9 5 3 4 4 5 6 5 5 4 3 4 4 5 5 5 4 3 5 8 9 10 10 8 6 5 6 7 7 8 8 8 8 10 14
11 11 11 11 12 13 11 11 10 7 4 4 3 3 3 4 4 3 3 3 3 4 6 6 4 6 9 10 10 10 7 5 5 6 7 7 7 7 7 7 8 9
10 10 10 11 12 10 9 9 6 5 6 5 3 3 3 3 3 3 4 3 3 4 4 4 4 4 5 10 9 10 10 6 5 6 7 7 7 7 7 7 8 9
Wind_Direction
118 119 117 115 109 110 112 113 110 111 108 109 108 105 98 96 84 80 75 71 67 67 59 52 44 37 34 36 28 41 46 38 32 19 8 16 34 29 13 0 354 346
114 112 111 111 110 109 107 107 112 112 110 107 104 103 98 94 83 82 83 81 75 67 63 59 52 44 31 36 19 35 47 43 36 23 319 29 350 352 353 325 323 335
116 117 120 120 120 118 114 114 116 114 109 105 105 103 106 100 95 87 88 94 89 83 73 73 80 74 51 21 327 55 46 42 21 357 334 6 6 360 348 329 340 330
123 121 118 120 123 128 129 126 118 113 119 120 112 113 115 115 115 118 119 124 121 118 111 101 85 72 64 37 359 42 27 52 38 348 345 355 358 3 345 340 331 335
126 123 125 126 131 133 132 131 132 132 127 120 124 130 136 143 151 153 146 137 124 113 114 112 96 76 44 35 21 33 8 24 33 4 353 344 346 357 341 335 332 322
131 134 137 140 145 147 145 141 137 136 135 140 144 148 148 153 147 138 129 122 117 116 107 89 72 63 49 30 23 31 10 14 3 355 349 331 336 339 325 316 317 318
145 147 149 151 155 154 144 143 143 143 146 144 148 154 161 155 142 134 123 118 108 90 76 68 60 47 35 25 21 17 5 19 344 342 336 325 323 319 314 318 319 314
150 151 153 156 157 153 148 148 152 153 149 155 153 154 152 134 124 119 103 91 88 73 68 63 56 48 36 15 14 352 355 0 335 331 323 319 319 313 322 321 316 307
156 159 160 162 156 153 149 154 157 155 165 161 147 140 127 112 105 96 87 81 72 66 63 60 47 49 25 24 345 350 337 335 327 323 316 314 313 311 316 315 310 307
162 161 162 163 160 157 161 165 164 166 163 142 133 125 112 96 90 84 79 70 71 70 67 45 8 352 320 333 339 333 326 317 316 311 303 300 300 303 306 311 305 303
163 163 166 168 171 171 176 169 166 155 142 133 121 109 103 105 92 79 75 76 69 57 358 292 304 304 297 290 302 298 298 294 292 294 293 291 291 292 295 292 291 289
164 167 173 177 182 178 172 168 160 146 133 119 113 109 102 95 97 88 89 78 85 308 284 287 279 286 286 283 286 293 288 287 284 285 285 288 288 287 286 287 286 287
170 177 180 187 186 175 169 161 154 143 132 122 114 113 112 112 111 111 115 140 212 214 254 264 277 280 277 281 279 278 283 280 285 282 283 285 282 284 284 282 280 281
180 182 186 186 178 168 162 156 143 138 129 120 118 119 121 128 136 140 157 173 205 220 233 250 266 268 272 278 281 283 283 283 278 282 286 286 284 285 285 281 278 277
182 183 182 172 161 159 158 152 145 142 134 128 125 127 127 137 141 148 169 200 201 212 225 243 251 258 264 311 316 303 295 292 291 286 285 287 286 284 280 278 276 275
180 168 170 161 160 164 161 149 149 147 141 135 136 142 146 151 155 165 183 199 207 212 217 223 239 240 210 272 273 279 298 292 290 282 280 279 280 280 278 276 274 270
169 171 172 169 165 162 156 151 153 151 147 140 147 151 158 161 170 180 187 195 202 213 219 225 226 228 226 259 265 269 275 279 277 279 278 277 273 272 273 273 270 271
171 166 175 173 164 170 154 153 147 152 150 149 152 157 170 170 192 190 187 188 197 211 219 226 237 235 246 258 266 268 266 266 268 271 271 267 266 265 267 271 274 275
179 174 177 177 172 160 155 144 152 156 155 157 164 167 168 182 198 191 188 191 198 207 220 227 234 243 248 257 262 266 266 266 266 263 264 262 262 264 268 269 271 274
182 179 185 184 167 161 156 161 166 176 163 157 153 158 177 188 195 195 189 194 200 207 216 227 239 241 248 253 259 262 264 265 263 262 259 260 259 263 264 265 267 272
186 185 189 182 171 160 167 177 175 172 161 166 162 172 177 186 191 191 196 194 197 204 215 231 238 242 249 253 256 261 265 268 262 260 260 258 260 260 264 269 272 271
188 192 192 187 168 171 180 182 180 183 164 166 158 171 176 182 193 184 187 188 195 200 216 231 242 246 249 251 256 261 267 267 259 258 256 257 259 263 265 269 267 265
188 191 194 189 186 185 192 193 175 181 170 162 154 173 175 183 184 186 186 182 195 200 212 232 238 249 253 255 259 261 264 262 260 258 259 260 262 264 263 264 266 264
192 195 197 197 191 197 199 184 145 143 162 159 167 174 183 181 176 177 189 191 191 201 209 223 238 251 259 262 260 258 256 256 254 255 261 260 267 264 263 266 263 261
194 196 199 198 199 205 198 193 187 180 140 146 166 170 174 158 172 179 186 196 198 201 218 225 243 258 263 265 262 261 259 253 253 260 264 264 268 268 268 270 272 268
196 196 201 199 204 204 195 191 157 139 153 163 165 167 170 171 170 189 181 201 185 183 209 231 240 248 253 261 260 258 253 248 251 253 260 268 269 273 278 276 272 274